Regional Weather Roundup
Issued by NWS

Home | Current Version | Previous Version | Graphics & Text | Print | Product List | Glossary On
Versions: 1 2 3 4 5 6 7 8 9 10 11 12 13 14 15 16 17 18 19 20 21 22 23 24 25 26 27 28 29 30 31 32 33 34 35 36 37 38 39 40 41 42 43 44 45 46 47 48 49 50
000
ASUS43 KBIS 240310
RWRND

NORTH DAKOTA REGIONAL WEATHER ROUNDUP
NATIONAL WEATHER SERVICE BISMARCK ND
900 PM CST FRI FEB 23 2018

NOTE: "FAIR" INDICATES FEW OR NO CLOUDS BELOW 12,000 FEET WITH NO
SIGNIFICANT WEATHER AND/OR OBSTRUCTIONS TO VISIBILITY.


NDZ001>003-009>011-017-240400-
NORTHWEST NORTH DAKOTA

CITY           SKY/WX    TMP DP  RH WIND       PRES   REMARKS
WILLISTON      CLEAR      4  -2  76 S6        30.02F WCI  -7
MINOT          CLOUDY     7   1  76 SE7       30.06F WCI  -5
MINOT AFB      CLOUDY     1  -4  80 S13       30.05F WCI -16
$$

NDZ018>021-031>035-040>046-240400-
SOUTHWEST NORTH DAKOTA

CITY           SKY/WX    TMP DP  RH WIND       PRES   REMARKS
BISMARCK       CLEAR     11   6  81 S9        30.18F WCI  -2
DICKINSON      CLEAR      5  -4  66 S14       30.01F WCI -12
GARRISON         N/A      4   1  88 S5        30.09F WCI  -5
HETTINGER ARPT CLEAR      3  -4  72 SE8       30.07F WCI -10
$$

NDZ004>008-012>016-024-026-027-054-240400-
NORTHEAST NORTH DAKOTA

CITY           SKY/WX    TMP DP  RH WIND       PRES   REMARKS
GRAND FORKS    FAIR       3  -1  83 S8        30.23S WCI -10
GRND FRKS AFB  FAIR       6   1  77 SW8       30.22S WCI  -7
DEVILS LAKE    FAIR       5   1  83 SW12      30.16F WCI -11
$$

NDZ022-023-025-028>030-036>039-047>053-240400-
SOUTHEAST NORTH DAKOTA

CITY           SKY/WX    TMP DP  RH WIND       PRES   REMARKS
FARGO          FAIR       5   2  87 S9        30.27F WCI  -9
JAMESTOWN      CLOUDY     6   3  87 SW8       30.20F WCI  -7
$$




USA.gov is the U.S. government's official web portal to all federal, state and local government web resources and services.